EN

Hourly Weather La Rioja

Today, 24 July, Saturday

Time Temperature Precipitation Wind Pressure Humidity
00:00 +13°C° 0 mm 1 mps 665 mmHg 71%
01:00 +13°C° 0 mm 1 mps 665 mmHg 72%
02:00 +12°C° 0 mm 1 mps 665 mmHg 74%
03:00 +12°C° 0 mm 1 mps 664 mmHg 75%
04:00 +12°C° 0 mm 1 mps 664 mmHg 72%
05:00 +12°C° 0 mm 1 mps 665 mmHg 69%
06:00 +13°C° 0 mm 1 mps 665 mmHg 67%
07:00 +15°C° 0 mm 2 mps 665 mmHg 57%
08:00 +18°C° 0 mm 2 mps 666 mmHg 48%
09:00 +20°C° 0 mm 2 mps 666 mmHg 38%
10:00 +22°C° 0 mm 3 mps 666 mmHg 33%
11:00 +25°C° 0 mm 3 mps 667 mmHg 27%
12:00 +26°C° 0 mm 3 mps 667 mmHg 22%
13:00 +27°C° 0 mm 3 mps 667 mmHg 20%
14:00 +28°C° 0 mm 4 mps 667 mmHg 18%
15:00 +28°C° 0 mm 4 mps 666 mmHg 16%
16:00 +27°C° 0 mm 4 mps 666 mmHg 23%
17:00 +25°C° 0 mm 4 mps 666 mmHg 29%
18:00 +23°C° 0 mm 4 mps 666 mmHg 36%
19:00 +19°C° 0 mm 4 mps 666 mmHg 51%
20:00 +16°C° 0 mm 3 mps 666 mmHg 66%
21:00 +13°C° 0 mm 2 mps 666 mmHg 81%
22:00 +13°C° 0 mm 2 mps 666 mmHg 83%
23:00 +12°C° 0 mm 2 mps 665 mmHg 85%

Tomorrow, 25 July, Sunday

Time Temperature Precipitation Wind Pressure Humidity
00:00 +10°C° 0 mm 2 mps 665 mmHg 87%
01:00 +11°C° 0 mm 1 mps 665 mmHg 87%
02:00 +11°C° 0 mm 1 mps 665 mmHg 87%
03:00 +11°C° 0 mm 1 mps 665 mmHg 87%
04:00 +11°C° 0 mm 1 mps 665 mmHg 85%
05:00 +12°C° 0 mm 1 mps 665 mmHg 82%
06:00 +12°C° 0 mm 1 mps 665 mmHg 80%
07:00 +15°C° 0 mm 1 mps 666 mmHg 71%
08:00 +17°C° 0 mm 2 mps 666 mmHg 63%
09:00 +19°C° 0 mm 2 mps 667 mmHg 54%
10:00 +20°C° 0 mm 2 mps 667 mmHg 48%
11:00 +22°C° 0 mm 3 mps 667 mmHg 43%
12:00 +23°C° 0 mm 4 mps 667 mmHg 37%
13:00 +23°C° 0 mm 4 mps 667 mmHg 38%
14:00 +23°C° 0 mm 4 mps 667 mmHg 40%
15:00 +23°C° 0 mm 5 mps 666 mmHg 41%
16:00 +22°C° 0 mm 5 mps 666 mmHg 47%
17:00 +20°C° 0 mm 5 mps 666 mmHg 52%
18:00 +19°C° 0 mm 4 mps 666 mmHg 58%
19:00 +17°C° 0 mm 3 mps 666 mmHg 66%
20:00 +15°C° 0 mm 2 mps 666 mmHg 75%
21:00 +13°C° 0 mm 1 mps 666 mmHg 84%
22:00 +12°C° 0 mm 1 mps 666 mmHg 85%
23:00 +12°C° 0 mm 2 mps 666 mmHg 87%

Day after tomorrow, 26 July, Monday

Time Temperature Precipitation Wind Pressure Humidity
00:00 +10°C° 0 mm 2 mps 666 mmHg 88%
01:00 +10°C° 0 mm 2 mps 666 mmHg 88%
02:00 +9°C° 0 mm 2 mps 666 mmHg 87%
03:00 +9°C° 0 mm 2 mps 666 mmHg 86%
04:00 +10°C° 0 mm 2 mps 666 mmHg 84%
05:00 +11°C° 0 mm 1 mps 666 mmHg 82%
06:00 +12°C° 0 mm 1 mps 667 mmHg 80%
07:00 +14°C° 0 mm 2 mps 667 mmHg 70%
08:00 +16°C° 0 mm 2 mps 668 mmHg 61%
09:00 +19°C° 0 mm 2 mps 668 mmHg 52%
10:00 +20°C° 0 mm 2 mps 669 mmHg 47%
11:00 +22°C° 0 mm 3 mps 669 mmHg 42%
12:00 +25°C° 0 mm 3 mps 669 mmHg 37%
13:00 +25°C° 0 mm 3 mps 669 mmHg 37%
14:00 +25°C° 0 mm 4 mps 669 mmHg 37%
15:00 +25°C° 0 mm 4 mps 668 mmHg 37%
16:00 +23°C° 0 mm 4 mps 668 mmHg 41%
17:00 +22°C° 0 mm 4 mps 668 mmHg 45%
18:00 +21°C° 0 mm 4 mps 668 mmHg 49%
19:00 +19°C° 0 mm 3 mps 668 mmHg 60%
20:00 +16°C° 0 mm 2 mps 668 mmHg 70%
21:00 +14°C° 0 mm 1 mps 668 mmHg 81%
22:00 +13°C° 0 mm 1 mps 668 mmHg 82%
23:00 +13°C° 0 mm 1 mps 668 mmHg 83%

27 July, Tuesday

Time Temperature Precipitation Wind Pressure Humidity
00:00 +13°C° 0 mm 1 mps 667 mmHg 84%
01:00 +13°C° 0 mm 1 mps 667 mmHg 84%
02:00 +12°C° 0 mm 1 mps 667 mmHg 84%
03:00 +12°C° 0 mm 1 mps 667 mmHg 85%
04:00 +13°C° 0 mm 1 mps 667 mmHg 83%
05:00 +13°C° 0 mm 1 mps 667 mmHg 81%
06:00 +14°C° 0 mm 1 mps 667 mmHg 79%
07:00 +16°C° 0 mm 1 mps 668 mmHg 69%
08:00 +19°C° 0 mm 1 mps 668 mmHg 60%
09:00 +21°C° 0 mm 2 mps 669 mmHg 50%
10:00 +23°C° 0 mm 2 mps 669 mmHg 45%
11:00 +25°C° 0 mm 3 mps 669 mmHg 40%
12:00 +27°C° 0 mm 3 mps 669 mmHg 35%
13:00 +27°C° 0 mm 3 mps 669 mmHg 34%
14:00 +28°C° 0 mm 3 mps 669 mmHg 33%
15:00 +29°C° 0 mm 3 mps 669 mmHg 31%
16:00 +27°C° 0 mm 3 mps 669 mmHg 36%
17:00 +26°C° 0 mm 3 mps 668 mmHg 42%
18:00 +23°C° 0 mm 4 mps 668 mmHg 47%
19:00 +21°C° 0 mm 3 mps 668 mmHg 58%
20:00 +18°C° 0 mm 2 mps 668 mmHg 70%
21:00 +15°C° 0 mm 1 mps 668 mmHg 82%
22:00 +15°C° 0 mm 1 mps 668 mmHg 83%
23:00 +14°C° 0 mm 1 mps 667 mmHg 85%

28 July, Wednesday

Time Temperature Precipitation Wind Pressure Humidity
00:00 +14°C° 0 mm 1 mps 667 mmHg 86%
01:00 +14°C° 0 mm 1 mps 667 mmHg 88%
02:00 +13°C° 0 mm 1 mps 667 mmHg 89%
03:00 +13°C° 0 mm 1 mps 667 mmHg 91%
04:00 +13°C° 0 mm 1 mps 667 mmHg 90%
05:00 +13°C° 0 mm 1 mps 667 mmHg 88%
06:00 +13°C° 0 mm 1 mps 667 mmHg 87%
07:00 +15°C° 0 mm 1 mps 668 mmHg 79%
08:00 +17°C° 0 mm 2 mps 668 mmHg 71%
09:00 +19°C° 0 mm 2 mps 669 mmHg 63%
10:00 +21°C° 0 mm 2 mps 669 mmHg 56%
11:00 +24°C° 0 mm 3 mps 669 mmHg 49%
12:00 +26°C° 0 mm 3 mps 670 mmHg 42%
13:00 +26°C° 0 mm 4 mps 670 mmHg 40%
14:00 +27°C° 0 mm 4 mps 670 mmHg 39%
15:00 +28°C° 0 mm 5 mps 669 mmHg 37%
16:00 +26°C° 0 mm 4 mps 669 mmHg 43%
17:00 +23°C° 0 mm 4 mps 669 mmHg 48%
18:00 +22°C° 0 mm 4 mps 669 mmHg 54%
19:00 +19°C° 0 mm 3 mps 669 mmHg 65%
20:00 +17°C° 0 mm 2 mps 669 mmHg 76%
21:00 +14°C° 0 mm 2 mps 669 mmHg 87%
22:00 +14°C° 0 mm 1 mps 668 mmHg 87%
23:00 +13°C° 0 mm 1 mps 668 mmHg 88%

29 July, Thursday

Time Temperature Precipitation Wind Pressure Humidity
00:00 +13°C° 0 mm 1 mps 668 mmHg 88%
01:00 +13°C° 0 mm 1 mps 668 mmHg 88%
02:00 +13°C° 0 mm 1 mps 667 mmHg 88%
03:00 +12°C° 0 mm 0 mps 667 mmHg 87%
04:00 +12°C° 0 mm 0 mps 667 mmHg 86%
05:00 +13°C° 0 mm 0 mps 667 mmHg 84%
06:00 +13°C° 0 mm 0 mps 667 mmHg 82%
07:00 +18°C° 0 mm 1 mps 668 mmHg 72%
08:00 +20°C° 0 mm 1 mps 668 mmHg 62%
09:00 +23°C° 0 mm 2 mps 669 mmHg 52%
10:00 +25°C° 0 mm 2 mps 669 mmHg 46%
11:00 +27°C° 0 mm 3 mps 669 mmHg 40%
12:00 +29°C° 0 mm 3 mps 669 mmHg 33%
13:00 +30°C° 0 mm 4 mps 669 mmHg 32%
14:00 +30°C° 0 mm 4 mps 669 mmHg 31%
15:00 +32°C° 0 mm 5 mps 669 mmHg 30%
16:00 +28°C° 0 mm 5 mps 668 mmHg 38%
17:00 +25°C° 0 mm 4 mps 668 mmHg 47%
18:00 +22°C° 0 mm 4 mps 668 mmHg 55%
19:00 +19°C° 0 mm 3 mps 668 mmHg 66%
20:00 +16°C° 0 mm 3 mps 668 mmHg 78%
21:00 +13°C° 0 mm 2 mps 668 mmHg 89%
22:00 +13°C° 0 mm 2 mps 668 mmHg 89%
23:00 +12°C° 0 mm 2 mps 667 mmHg 89%
Show more